Back to catalog

STARLINK-30272

AliveCommunicationsVLEO
NORAD 57860·PAYLOAD·🇺🇸 United States

Launched Sep 12, 2023 from Vandenberg Space Force Base

Loading…

Next Passes (next 24 hours)

TLE

FreshSource: CelesTrak SupGP

Epoch: Sep 14, 2026, 13:38 UTC

1 57860C 23141W   26257.56854167  .00042885  00000+0  13789-2 0  2574
2 57860  53.1576 125.3296 0001341  97.9096  20.5569 15.31683360    16

Track STARLINK-30272 in real time with AllMySat

Download on the App Store